Location: Nassau
(25.0830°N, 77.3500°W)
Time: 15:23:04
(UTC-04:00)

ISS - All Passes

Search period start: 28 June 2017 00:00
Search period end: 08 July 2017 00:00
Orbit: 401 x 408 km, 51.6° (Epoch: 29 June)

Date Brightness Start Highest point End Pass type
(mag) Time Alt. Az. Time Alt. Az. Time Alt. Az.
28 Jun - 06:05:47 10° S 06:08:04 18° SE 06:10:21 10° E daylight
28 Jun - 07:41:48 10° W 07:44:24 21° NW 07:46:59 10° N daylight
28 Jun - 15:51:40 10° NW 15:54:57 88° NE 15:58:14 10° SE daylight
29 Jun - 06:48:59 10° WSW 06:52:08 48° NW 06:55:19 10° NNE daylight
29 Jun - 14:59:43 10° NNW 15:02:45 34° NE 15:05:47 10° ESE daylight
29 Jun - 16:38:02 10° WSW 16:38:55 11° SW 16:39:49 10° SW daylight
30 Jun - 05:56:46 10° SSW 05:59:58 62° SE 06:03:12 10° NE visible
30 Jun - 14:08:15 10° N 14:10:27 16° NE 14:12:39 10° E daylight
30 Jun - 15:44:07 10° WNW 15:46:53 25° SW 15:49:38 10° S daylight
01 Jul - 05:05:11 10° S 05:07:52 24° SE 05:10:34 10° ENE visible
01 Jul - 06:42:06 10° W 06:44:17 17° NW 06:46:29 10° N daylight
01 Jul - 14:51:30 10° NW 14:54:46 65° SW 14:58:01 10° SSE daylight
02 Jul - 04:15:19 10° SE 04:15:49 10° SE 04:16:18 10° ESE visible
02 Jul - 05:48:58 10° WSW 05:51:58 35° NW 05:55:00 10° NNE visible
02 Jul - 13:59:23 10° NNW 14:02:34 47° NE 14:05:45 10° ESE daylight
03 Jul - 04:56:29 10° SW 04:59:44 89° SE 05:02:59 10° NE visible
03 Jul - 13:07:41 10° N 13:10:16 21° NE 13:12:50 10° E daylight
03 Jul - 14:44:13 10° W 14:46:36 19° SW 14:48:58 10° S daylight
04 Jul - 04:04:37 10° SSW 04:07:34 33° SE 04:10:32 10° ENE visible
04 Jul - 05:42:28 10° WNW 05:44:05 13° NW 05:45:43 10° N visible
04 Jul - 12:17:02 10° NNE 12:17:50 11° NE 12:18:40 10° NE daylight
04 Jul - 13:51:19 10° NW 13:54:27 45° SW 13:57:36 10° SSE daylight
05 Jul - 03:13:40 10° SSE 03:15:27 14° SE 03:17:15 10° E visible
05 Jul - 04:48:54 10° WSW 04:51:42 26° NW 04:54:31 10° NNE visible
05 Jul - 12:58:59 10° NW 13:02:15 66° NE 13:05:30 10° SE daylight
06 Jul - 03:56:10 10° SW 03:59:23 64° NW 04:02:37 10° NE visible
06 Jul - 12:07:05 10° NNW 12:09:56 27° NE 12:12:48 10° ESE daylight
06 Jul - 13:44:24 10° W 13:46:11 14° SW 13:47:57 10° SSW daylight
07 Jul - 03:04:03 10° SSW 03:07:09 46° SE 03:10:17 10° NE visible
07 Jul - 04:43:15 10° NW 04:43:47 10° NW 04:44:20 10° NNW visible
07 Jul - 11:15:47 10° N 11:17:31 14° NE 11:19:16 10° ENE daylight
07 Jul - 12:51:04 10° WNW 12:54:02 32° SW 12:57:00 10° SSE daylight
